Regional Weather Roundup
Issued by NWS Jackson, KY

Home | Current Version | Previous Version | Graphics & Text | Print | Product List | Glossary On
Versions: 1 2 3 4 5 6 7 8 9 10 11 12 13 14 15 16 17 18 19 20 21 22 23 24 25 26 27
000
ASUS43 KJKL 050710
RWRJKL

EAST KENTUCKY HOURLY WEATHER ROUNDUP
NATIONAL WEATHER SERVICE JACKSON KY
300 AM EDT THU MAY 05 2016

NOTE: "FAIR" INDICATES FEW OR NO CLOUDS BELOW 12,000 FEET WITH
NO SIGNIFICANT WEATHER AND/OR OBSTRUCTIONS TO VISIBILITY.

* THESE REPORTS ARE NOT UNDER NWS QUALITY CONTROL AND MAY NOT
  REPORT WEATHER SUCH AS PRECIPITATION AND FOG.

KYZ079-080-083-085-087-088-110-112-115-119-120-050800
...EASTERN KENTUCKY...

CITY           SKY/WX    TMP DP  RH WIND       PRES   REMARKS
JACKSON        PTCLDY    42  39  89 NW5       29.74F
LONDON         CLOUDY    45  42  89 NW5       29.75F
SOMERSET*      CLEAR     45  45 100 CALM      29.78F
MONTICELLO*    PTCLDY    47  45  93 W6        29.79F
WILLIAMSBURG*  CLOUDY    45  45 100 CALM      29.76F
MIDDLESBORO*   CLOUDY    46  46 100 CALM      29.75F
HARLAN APT*    CLOUDY    45  43  93 CALM      29.74F
HAZARD APT*    MOSUNNY   43  43 100 NW3       29.74F
BLACK MTN*       N/A     36  36 100 N9          N/A  WCI  29
PIKE CO APT*     N/A     43  43 100 NW5       29.72F
BIG SANDY APT* MOSUNNY   43  43  98 CALM      29.73S
MOREHEAD APT*  SUNNY     41  37  87 CALM      29.75F
$$

KYZ035-036-041-042-044-050-067-078-099-050800
...CENTRAL KENTUCKY...

CITY           SKY/WX    TMP DP  RH WIND       PRES   REMARKS
MT STERLING*   PTCLDY    39  37  93 CALM      29.75F
FLEMING/MASON* CLOUDY    41  37  86 W3        29.74F
DANVILLE*      MOCLDY    43  37  81 CALM      29.77F
RICHMOND*      CLEAR     43  36  75 W3        29.76F
LEXINGTON      CLOUDY    43  38  82 W3        29.75F
FRANKFORT      MOCLDY    45  38  76 W6        29.74F
LOUISVILLE     MOCLDY    49  40  71 W5        29.77F
LEBANON*       PTSUNNY   46  41  81 CALM      29.78F
BOWLING GREEN  CLOUDY    48  41  76 CALM      29.81F
$$

KYZ091>093-OHZ055-061-077-WVZ005-015-034-035-042-050800
...SOUTHERN OHIO/WEST VIRGINIA...

CITY           SKY/WX    TMP DP  RH WIND       PRES   REMARKS
COVINGTON      LGT RAIN  43  39  87 NW5       29.72F
COLUMBUS       MOCLDY    42  37  82 N5        29.70F
DAYTON         CLOUDY    40  38  93 N6        29.73F
WILMINGTON     CLOUDY    43  36  76 NW6       29.71S
HUNTINGTON       N/A     45  42  89 CALM      29.71F
CHARLESTON     LGT RAIN  48  45  89 W5        29.69F FOG
PINEVILLE*     DRIZZLE   47  44  87 MISG      29.72F
BECKLEY        CLOUDY    45  42  89 W7        29.66F
$$

VAZ002-007-008-TNZ017-027-036-066-071-050800
...SOUTHWEST VIRGINIA/EAST TENNESSEE...

CITY           SKY/WX    TMP DP  RH WIND       PRES   REMARKS
WISE*          CLOUDY    43  41  93 W3        29.71F
BRISTOL        CLOUDY    47  44  90 W6        29.71F
MORRISTOWN*    CLOUDY    48  46  93 NW5       29.72F
SEVIERVILLE*   PTSUNNY   48  45  87 W5        29.74F
KNOXVILLE      LGT RAIN  49  44  83 NW6       29.74F
OAK RIDGE      CLOUDY    48  44  86 CALM      29.77F
CROSSVILLE     PTCLDY    45  41  86 NW6       29.78F
NASHVILLE      CLEAR     50  40  68 NW6       29.84F
$$

...KEY TO REMARKS...
VSB - VISIBILITY IN MILES
WCI - WIND CHILL INDEX
HX  - HEAT INDEX

$$




USA.gov is the U.S. government's official web portal to all federal, state and local government web resources and services.